DW7126 Lourinha PT current weather conditions

sailwx.info

Wind from 013 at 6 knots gusting 9

Air temperature 18.9° C
Dewpoint 16.7° C

Last reported at 2014-Jul-22 08:50 UTC.
Time now 2014-Jul-22 09:18 UTC

Location: N 39°14' W 009°18'.
View on Google Maps.

See reports from other nearby stations

  
Tides and Currents Weather Stations Pressure Air Temp Water Temp Dewpoint Dewpoint Depression Visibility Wind Speed Wind Dir Waves Ship Positions
date/time (UTC)wind fromknots sea level pressurealtimeterstation pressurevisibilityair tempwater tempwave heightnotes
2014-Jul-22 08:50 013 6 gusting 9 18.9
2014-Jul-22 08:45 355 6 gusting 8 18.9
2014-Jul-22 08:40 017 5 gusting 8 18.9
2014-Jul-22 08:35 016 6 gusting 8 18.9
2014-Jul-22 08:30 011 4 gusting 11 18.9
2014-Jul-22 08:25 349 6 gusting 11 18.9
2014-Jul-22 08:20 041 3 gusting 8 18.9
2014-Jul-22 08:15 013 6 gusting 9 18.3
2014-Jul-22 08:10 355 5 gusting 10 18.3
2014-Jul-22 08:05 029 6 gusting 10 18.3
2014-Jul-22 08:00 032 6 gusting 10 18.3
2014-Jul-22 07:55 013 5 gusting 8 18.3
2014-Jul-22 07:50 038 5 gusting 7 18.3
2014-Jul-22 07:45 019 5 gusting 11 18.3
2014-Jul-22 07:40 022 7 gusting 11 18.3
2014-Jul-22 07:35 024 5 gusting 8 18.3
2014-Jul-22 07:30 016 6 gusting 9 18.3
2014-Jul-22 07:25 035 6 gusting 9 18.3
2014-Jul-22 07:20 024 6 gusting 12 18.3
2014-Jul-22 07:15 039 8 gusting 12 18.3
2014-Jul-22 07:10 011 6 gusting 11 17.8
2014-Jul-22 07:05 021 6 gusting 11 17.8
2014-Jul-22 07:00 015 5 gusting 10 17.8
2014-Jul-22 06:55 030 7 gusting 10 17.8
2014-Jul-22 06:50 024 6 gusting 10 17.8
2014-Jul-22 06:45 029 7 gusting 11 17.8
2014-Jul-22 06:40 035 6 gusting 11 17.8
2014-Jul-22 06:35 035 7 gusting 11 17.8
2014-Jul-22 06:30 029 7 gusting 11 17.8
2014-Jul-22 06:25 026 6 gusting 10 17.8
2014-Jul-22 06:20 017 5 gusting 9 17.8
2014-Jul-22 06:15 019 6 gusting 9 17.8
2014-Jul-22 06:10 022 5 gusting 7 17.8
2014-Jul-22 06:05 024 4 gusting 8 17.2
2014-Jul-22 06:00 030 5 gusting 7 17.8
2014-Jul-22 05:55 020 5 gusting 8 17.8
2014-Jul-22 05:50 032 4 gusting 9 17.8
2014-Jul-22 05:45 032 4 gusting 9 17.8
2014-Jul-22 05:40 044 4 gusting 6 17.2
2014-Jul-22 05:35 036 4 gusting 6 17.2
2014-Jul-22 05:30 011 3 gusting 5 17.2
2014-Jul-22 05:25 030 4 gusting 8 17.2
2014-Jul-22 05:20 025 6 gusting 8 17.2
2014-Jul-22 05:15 022 3 gusting 11 17.2
2014-Jul-22 05:10 005 6 gusting 11 17.2
2014-Jul-22 05:05 022 5 gusting 7 17.2
2014-Jul-22 05:00 023 4 gusting 6 17.2
2014-Jul-22 04:55 023 3 gusting 6 17.2
2014-Jul-22 04:50 355 4 gusting 6 17.2
2014-Jul-22 04:45 021 3 gusting 6 16.7
2014-Jul-22 04:40 028 3 gusting 5 16.7
2014-Jul-22 04:35 024 3 gusting 5 16.7
2014-Jul-22 04:30 019 2 gusting 4 16.7
2014-Jul-22 04:25 028 2 gusting 4 16.7
2014-Jul-22 04:20 036 1 gusting 4 16.7
2014-Jul-22 04:15 034 0 gusting 3 16.7
2014-Jul-22 04:10 034 1 gusting 3 16.7
2014-Jul-22 04:05 035 0 gusting 1 16.7
2014-Jul-22 04:00 035 16.1
2014-Jul-22 03:55 035 16.7
2014-Jul-22 03:50 035 16.7
2014-Jul-22 03:45 035 16.1
2014-Jul-22 03:40 035 16.1
2014-Jul-22 03:35 035 16.1
2014-Jul-22 03:30 035 0 gusting 2 16.1
2014-Jul-22 03:25 035 16.1
2014-Jul-22 03:20 035 16.1
2014-Jul-22 03:15 035 16.1
2014-Jul-22 03:10 035 16.1
2014-Jul-22 03:05 035 16.1
2014-Jul-22 03:00 035 0 gusting 2 16.1
2014-Jul-22 02:55 035 16.1
2014-Jul-22 02:50 035 16.7
2014-Jul-22 02:45 035 16.7
2014-Jul-22 02:40 035 16.7
2014-Jul-22 02:35 035 16.7
2014-Jul-22 02:30 035 16.7
2014-Jul-22 02:25 035 0 gusting 2 16.7
2014-Jul-22 02:20 035 0 gusting 2 16.7
2014-Jul-22 02:15 035 16.7
2014-Jul-22 02:10 035 16.7
2014-Jul-22 02:05 035 0 gusting 4 16.7
2014-Jul-22 02:00 035 0 gusting 4 16.7
2014-Jul-22 01:55 036 0 gusting 4 16.7
2014-Jul-22 01:50 036 1 gusting 4 16.7
2014-Jul-22 01:45 038 1 gusting 3 16.7
2014-Jul-22 01:40 038 0 gusting 3 16.7
2014-Jul-22 01:35 039 0 gusting 4 16.7
2014-Jul-22 01:30 040 1 gusting 4 16.7
2014-Jul-22 01:25 041 0 gusting 4 16.7
2014-Jul-22 01:20 047 1 gusting 4 16.7
2014-Jul-22 01:15 051 1 gusting 5 16.7
2014-Jul-22 01:10 028 2 gusting 5 16.7
2014-Jul-22 01:05 044 2 gusting 4 16.7
2014-Jul-22 01:00 033 1 gusting 4 16.7
2014-Jul-22 00:55 043 1 gusting 5 16.7
2014-Jul-22 00:50 042 2 gusting 6 16.7
2014-Jul-22 00:45 051 3 gusting 6 16.7
2014-Jul-22 00:40 040 3 gusting 6 16.7
2014-Jul-22 00:35 016 3 gusting 6 16.7
2014-Jul-22 00:30 030 4 gusting 6 16.7
2014-Jul-22 00:25 005 2 gusting 6 16.7
2014-Jul-22 00:20 360 3 gusting 6 16.7
2014-Jul-22 00:15 355 3 gusting 6 16.7
2014-Jul-22 00:10 022 0 gusting 5 16.7
2014-Jul-22 00:05 022 2 gusting 5 16.7
2014-Jul-22 00:00 049 2 gusting 5 16.7
2014-Jul-21 23:55 032 2 gusting 5 16.7
2014-Jul-21 23:50 037 2 gusting 5 16.7
2014-Jul-21 23:45 031 1 gusting 6 16.7
2014-Jul-21 23:40 040 3 gusting 6 16.7
2014-Jul-21 23:35 042 4 gusting 6 16.7
2014-Jul-21 23:30 025 3 gusting 6 17.2
2014-Jul-21 23:25 034 3 gusting 6 17.2
2014-Jul-21 23:20 027 3 gusting 6 17.2
2014-Jul-21 23:15 042 1 gusting 8 17.2
2014-Jul-21 23:10 025 4 gusting 6 17.2
2014-Jul-21 23:05 035 4 gusting 6 17.2
2014-Jul-21 23:00 029 4 gusting 7 17.2
2014-Jul-21 22:55 031 3 gusting 7 17.2
2014-Jul-21 22:50 028 5 gusting 7 17.2
2014-Jul-21 22:45 015 4 gusting 6 17.2
2014-Jul-21 22:40 020 3 gusting 5 17.2
2014-Jul-21 22:35 005 2 gusting 6 17.2
2014-Jul-21 22:30 018 1 gusting 7 17.2
2014-Jul-21 22:25 029 3 gusting 9 17.2
2014-Jul-21 22:20 005 6 gusting 9 17.2
2014-Jul-21 22:15 016 4 gusting 7 17.2
2014-Jul-21 22:10 019 4 gusting 7 17.8
2014-Jul-21 22:05 034 2 gusting 8 17.8
2014-Jul-21 22:00 025 6 gusting 8 17.8
2014-Jul-21 21:55 038 5 gusting 8 17.8
2014-Jul-21 21:50 035 3 gusting 9 17.8
2014-Jul-21 21:45 020 4 gusting 9 17.8
2014-Jul-21 21:40 016 5 gusting 9 17.8
2014-Jul-21 21:35 042 5 gusting 9 17.8
2014-Jul-21 21:30 005 4 gusting 8 17.8
2014-Jul-21 21:25 005 5 gusting 8 17.8
2014-Jul-21 21:20 023 5 gusting 8 17.8
2014-Jul-21 21:15 024 6 gusting 10 17.8
2014-Jul-21 21:10 023 6 gusting 10 17.8
2014-Jul-21 21:05 020 6 gusting 10 17.8
2014-Jul-21 21:00 020 6 gusting 10 17.8
2014-Jul-21 20:55 031 6 gusting 9 17.8
2014-Jul-21 20:50 005 6 gusting 8 18.3
2014-Jul-21 20:45 013 6 gusting 10 18.3
2014-Jul-21 20:40 044 5 gusting 10 18.3
2014-Jul-21 20:35 028 6 gusting 11 18.3
2014-Jul-21 20:30 017 6 gusting 11 18.3
2014-Jul-21 20:25 014 6 gusting 10 18.3
2014-Jul-21 20:20 029 6 gusting 10 18.3
2014-Jul-21 20:15 360 6 gusting 12 18.9
2014-Jul-21 20:10 005 6 gusting 12 18.9
2014-Jul-21 20:05 005 6 gusting 10 18.9
2014-Jul-21 20:00 012 6 gusting 10 18.9
2014-Jul-21 19:55 360 6 gusting 10 19.4
2014-Jul-21 19:50 021 6 gusting 13 19.4
2014-Jul-21 19:45 360 7 gusting 13 19.4
2014-Jul-21 19:40 005 7 gusting 13 19.4
2014-Jul-21 19:35 048 9 gusting 14 20.0
2014-Jul-21 19:30 022 9 gusting 14 20.0
2014-Jul-21 19:25 019 7 gusting 16 20.0
2014-Jul-21 19:20 015 11 gusting 16 20.0
2014-Jul-21 19:15 005 11 gusting 15 20.6
2014-Jul-21 19:10 355 8 gusting 13 20.6
2014-Jul-21 19:05 005 8 gusting 14 20.6
2014-Jul-21 19:00 355 7 gusting 14 20.6
2014-Jul-21 18:55 017 8 gusting 13 21.1
2014-Jul-21 18:50 009 7 gusting 13 21.1
2014-Jul-21 18:45 012 7 gusting 13 21.1
2014-Jul-21 18:40 355 9 gusting 14 21.1
2014-Jul-21 18:35 355 8 gusting 13 21.1
2014-Jul-21 18:30 036 8 gusting 13 21.7
2014-Jul-21 18:25 017 6 gusting 13 21.7
2014-Jul-21 18:20 019 9 gusting 14 21.7
2014-Jul-21 18:15 355 7 gusting 14 22.2
2014-Jul-21 18:10 017 9 gusting 13 22.2
2014-Jul-21 18:05 024 6 gusting 13 21.7
2014-Jul-21 18:00 346 6 gusting 13 21.7
2014-Jul-21 17:55 017 8 gusting 12 22.2
2014-Jul-21 17:50 009 6 gusting 13 22.2
2014-Jul-21 17:45 017 7 gusting 13 22.2
2014-Jul-21 17:40 026 7 gusting 13 22.2
2014-Jul-21 17:35 024 7 gusting 15 22.2
2014-Jul-21 17:30 005 9 gusting 15 22.2
2014-Jul-21 17:25 360 7 gusting 13 22.2
2014-Jul-21 17:20 024 9 gusting 14 22.8
2014-Jul-21 17:15 005 8 gusting 14 22.8
2014-Jul-21 17:10 026 7 gusting 13 22.8
2014-Jul-21 17:05 005 9 gusting 13 22.8
2014-Jul-21 17:00 355 7 gusting 14 22.8
2014-Jul-21 16:55 030 10 gusting 14 22.8
2014-Jul-21 16:50 009 7 gusting 14 22.8
2014-Jul-21 16:45 021 10 gusting 14 23.3
2014-Jul-21 16:40 005 8 gusting 13 23.3
2014-Jul-21 16:35 005 8 gusting 13 23.3
2014-Jul-21 16:30 011 8 gusting 13 23.3
2014-Jul-21 16:25 021 8 gusting 13 23.3
2014-Jul-21 16:20 005 6 gusting 13 23.3
2014-Jul-21 16:15 348 8 gusting 12 23.3
2014-Jul-21 16:10 355 6 gusting 13 23.3
2014-Jul-21 16:05 009 6 gusting 13 23.3
2014-Jul-21 16:00 005 7 gusting 12 23.3
2014-Jul-21 15:55 009 6 gusting 13 23.3
2014-Jul-21 15:50 338 7 gusting 13 23.3
2014-Jul-21 15:45 332 5 gusting 13 23.9
2014-Jul-21 15:40 021 7 gusting 14 23.3
2014-Jul-21 15:35 005 7 gusting 14 23.3
2014-Jul-21 15:30 344 6 gusting 13 22.8
2014-Jul-21 15:25 311 7 gusting 13 22.8
2014-Jul-21 15:20 319 10 gusting 14 22.8
2014-Jul-21 15:15 342 10 gusting 14 22.8
2014-Jul-21 15:10 336 9 gusting 13 22.8
2014-Jul-21 15:05 325 9 gusting 12 22.8
2014-Jul-21 15:00 336 6 gusting 11 22.8
2014-Jul-21 14:55 333 6 gusting 12 22.2
2014-Jul-21 14:50 321 9 gusting 15 22.2
2014-Jul-21 14:45 319 11 gusting 15 22.2
2014-Jul-21 14:40 309 9 gusting 14 22.2
2014-Jul-21 14:35 292 9 gusting 14 22.2
2014-Jul-21 14:30 315 11 gusting 14 22.2
2014-Jul-21 14:25 318 8 gusting 14 22.8
2014-Jul-21 14:20 323 9 gusting 13 22.8
2014-Jul-21 14:15 338 7 gusting 13 22.8
2014-Jul-21 14:10 331 9 gusting 13 23.3
2014-Jul-21 14:05 324 7 gusting 12 23.3
2014-Jul-21 14:00 327 7 gusting 12 23.9
2014-Jul-21 13:55 288 6 gusting 13 23.9
2014-Jul-21 13:50 348 5 gusting 13 23.9
2014-Jul-21 13:45 309 7 gusting 12 23.9
2014-Jul-21 13:40 030 6 gusting 13 23.9
2014-Jul-21 13:35 319 7 gusting 13 23.9
2014-Jul-21 13:30 336 6 gusting 13 23.9
2014-Jul-21 13:25 331 6 gusting 13 23.9
2014-Jul-21 13:20 334 7 gusting 13 23.9
2014-Jul-21 13:15 355 6 gusting 13 24.4
2014-Jul-21 13:10 323 7 gusting 13 24.4
2014-Jul-21 13:05 355 7 gusting 11 24.4
2014-Jul-21 13:00 347 7 gusting 12 24.4
2014-Jul-21 12:55 010 6 gusting 12 24.4
2014-Jul-21 12:50 005 6 gusting 11 23.9
2014-Jul-21 12:45 005 6 gusting 12 23.9
2014-Jul-21 12:40 348 7 gusting 12 24.4
2014-Jul-21 12:35 018 9 gusting 12 24.4
2014-Jul-21 12:30 034 6 gusting 12 23.9
2014-Jul-21 12:25 026 9 gusting 13 23.3
2014-Jul-21 12:20 015 8 gusting 13 23.3
2014-Jul-21 12:15 015 9 gusting 13 23.3
2014-Jul-21 12:10 031 9 gusting 13 22.8
2014-Jul-21 12:05 009 6 gusting 13 22.8
2014-Jul-21 12:00 021 8 gusting 12 22.8
2014-Jul-21 11:55 017 7 gusting 12 22.8
2014-Jul-21 11:50 047 6 gusting 12 22.8
2014-Jul-21 11:45 021 7 gusting 12 22.8
2014-Jul-21 11:40 037 8 gusting 12 22.8
2014-Jul-21 11:35 038 8 gusting 12 22.2
2014-Jul-21 11:30 021 7 gusting 13 22.2
2014-Jul-21 11:25 360 8 gusting 13 22.2
2014-Jul-21 11:20 355 7 gusting 13 22.2
2014-Jul-21 11:15 024 8 gusting 12 22.2
2014-Jul-21 11:10 350 8 gusting 12 22.2
2014-Jul-21 11:05 360 6 gusting 11 22.2
2014-Jul-21 11:00 317 7 gusting 14 22.2
2014-Jul-21 10:55 010 8 gusting 14 22.2
2014-Jul-21 10:50 011 6 gusting 15 21.7
2014-Jul-21 10:45 014 7 gusting 15 21.7
2014-Jul-21 10:40 021 8 gusting 12 21.7
2014-Jul-21 10:35 333 7 gusting 13 21.1
2014-Jul-21 10:30 005 6 gusting 13 21.1
2014-Jul-21 10:25 026 8 gusting 12 21.1
2014-Jul-21 10:20 032 7 gusting 12 21.1
2014-Jul-21 10:15 339 5 gusting 11 21.1
2014-Jul-21 10:10 005 7 gusting 11 21.1
2014-Jul-21 10:05 005 6 gusting 13 21.1
2014-Jul-21 10:00 024 6 gusting 12 21.1
2014-Jul-21 09:55 010 8 gusting 13 21.1
2014-Jul-21 09:50 021 6 gusting 12 21.1
2014-Jul-21 09:45 029 6 gusting 12 21.1
2014-Jul-21 09:40 042 7 gusting 12 20.6
2014-Jul-21 09:35 032 6 gusting 13 20.6
2014-Jul-21 09:30 360 9 gusting 13 20.6
2014-Jul-21 09:25 013 6 gusting 11 20.6
2014-Jul-21 09:20 011 6 gusting 11 20.6
2014-Jul-21 09:15 010 5 gusting 12 20.6
2014-Jul-21 09:10 021 6 gusting 12 20.0
2014-Jul-21 09:05 028 7 gusting 13 20.0
2014-Jul-21 09:00 024 10 gusting 14 20.0
2014-Jul-21 08:55 046 8 gusting 14 20.0
2014-Jul-21 08:50 012 9 gusting 13 20.0
2014-Jul-21 08:45 012 6 gusting 12 20.0
2014-Jul-21 08:40 024 6 gusting 14 19.4
2014-Jul-21 08:35 019 10 gusting 15 19.4
2014-Jul-21 08:30 009 9 gusting 15 19.4
2014-Jul-21 08:25 005 6 gusting 12 19.4
2014-Jul-21 08:20 032 6 gusting 12 18.9
2014-Jul-21 08:15 026 7 gusting 14 18.3
2014-Jul-21 08:10 032 9 gusting 15 18.3
2014-Jul-21 08:05 027 9 gusting 15 17.8
2014-Jul-21 08:00 011 9 gusting 13 17.8
2014-Jul-21 07:55 350 5 gusting 7 17.8
2014-Jul-21 07:50 026 5 gusting 7 17.8
2014-Jul-21 07:45 044 4 gusting 8 17.2
2014-Jul-21 07:40 017 5 gusting 11 17.2
2014-Jul-21 07:35 031 5 gusting 12 17.2
2014-Jul-21 07:30 028 6 gusting 7 17.2
2014-Jul-21 07:25 038 3 gusting 6 16.7
2014-Jul-21 07:20 034 3 gusting 6 16.7
2014-Jul-21 07:15 028 4 gusting 6 16.7
2014-Jul-21 07:10 019 5 gusting 9 16.7
2014-Jul-21 07:05 042 5 gusting 10 16.7
2014-Jul-21 07:00 046 6 gusting 10 16.7
2014-Jul-21 06:55 061 6 gusting 8 16.7
2014-Jul-21 06:50 029 5 gusting 8 16.1
2014-Jul-21 06:45 034 2 gusting 11 16.1
2014-Jul-21 06:40 060 4 gusting 11 16.1
2014-Jul-21 06:35 057 6 gusting 8 15.6
2014-Jul-21 06:30 050 2 gusting 7 15.6
2014-Jul-21 06:25 058 2 gusting 6 15.6
2014-Jul-21 06:20 058 1 gusting 6 15.6
2014-Jul-21 06:15 051 1 gusting 6 15.6
2014-Jul-21 06:10 056 1 gusting 3 15.0
2014-Jul-21 06:05 059 1 gusting 5 15.0
2014-Jul-21 06:00 061 3 gusting 5 15.6
2014-Jul-21 05:55 050 1 gusting 4 15.0
2014-Jul-21 05:50 055 1 gusting 3 15.0
2014-Jul-21 05:45 032 1 gusting 3 15.0
2014-Jul-21 05:40 040 0 gusting 4 15.0
2014-Jul-21 05:35 042 0 gusting 4 15.0
2014-Jul-21 05:30 031 2 gusting 4 15.0
2014-Jul-21 05:25 043 2 gusting 9 15.6
2014-Jul-21 05:20 053 2 gusting 9 15.6
2014-Jul-21 05:15 028 5 gusting 6 15.6
2014-Jul-21 05:10 018 3 gusting 5 15.6
2014-Jul-21 05:05 030 2 gusting 5 15.6
2014-Jul-21 05:00 024 3 gusting 5 15.6
2014-Jul-21 04:55 026 1 gusting 3 15.6
2014-Jul-21 04:50 026 1 gusting 4 15.6
2014-Jul-21 04:45 029 3 gusting 4 15.6
2014-Jul-21 04:40 036 1 gusting 3 15.6
2014-Jul-21 04:35 043 0 gusting 4 15.6
2014-Jul-21 04:30 029 0 gusting 5 15.6
2014-Jul-21 04:25 029 2 gusting 5 15.6
2014-Jul-21 04:20 034 3 gusting 6 15.6
2014-Jul-21 04:15 038 3 gusting 6 15.6
2014-Jul-21 04:10 017 3 gusting 5 15.6
2014-Jul-21 04:05 034 2 gusting 5 15.6
2014-Jul-21 04:00 360 2 gusting 6 15.6
2014-Jul-21 03:55 026 2 gusting 6 15.6
2014-Jul-21 03:50 039 3 gusting 5 15.6
2014-Jul-21 03:45 040 2 gusting 4 15.6
2014-Jul-21 03:40 037 1 gusting 5 15.6
2014-Jul-21 03:35 026 1 gusting 5 15.6
2014-Jul-21 03:30 035 1 gusting 4 15.6
2014-Jul-21 03:25 040 1 gusting 4 15.6
2014-Jul-21 03:20 033 0 gusting 4 15.6
2014-Jul-21 03:15 031 1 gusting 6 15.6
2014-Jul-21 03:10 030 3 gusting 6 15.6
2014-Jul-21 03:05 043 0 gusting 3 15.6
2014-Jul-21 03:00 036 15.6
2014-Jul-21 02:55 036 2 gusting 3 15.6
2014-Jul-21 02:50 034 0 gusting 3 16.1
2014-Jul-21 02:45 034 0 gusting 3 16.1
2014-Jul-21 02:40 025 1 gusting 5 16.1
2014-Jul-21 02:35 028 2 gusting 5 16.1
2014-Jul-21 02:30 032 1 gusting 4 16.1
2014-Jul-21 02:25 032 2 gusting 5 16.1
2014-Jul-21 02:20 030 3 gusting 5 16.1
2014-Jul-21 02:15 005 2 gusting 6 16.1
2014-Jul-21 02:10 005 2 gusting 6 16.1
2014-Jul-21 02:05 018 0 gusting 4 16.1
2014-Jul-21 02:00 019 2 gusting 4 16.1
2014-Jul-21 01:55 028 2 gusting 3 16.1
2014-Jul-21 01:50 028 1 gusting 4 16.1
2014-Jul-21 01:45 026 2 gusting 4 16.1
2014-Jul-21 01:40 026 2 gusting 4 16.1
2014-Jul-21 01:35 028 1 gusting 4 16.1
2014-Jul-21 01:30 026 0 gusting 2 16.7
2014-Jul-21 01:25 026 1 gusting 2 16.7
2014-Jul-21 01:20 026 16.7
2014-Jul-21 01:15 026 0 gusting 3 16.7
2014-Jul-21 01:10 026 1 gusting 4 16.7
2014-Jul-21 01:05 026 3 gusting 5 16.7
2014-Jul-21 01:00 028 3 gusting 5 16.7
2014-Jul-21 00:55 030 2 gusting 4 16.7
2014-Jul-21 00:50 030 1 gusting 4 16.7
2014-Jul-21 00:45 023 2 gusting 6 16.7
2014-Jul-21 00:40 022 3 gusting 6 16.7
2014-Jul-21 00:35 030 2 gusting 4 16.7
2014-Jul-21 00:30 030 1 gusting 4 16.7
2014-Jul-21 00:25 024 2 gusting 4 16.7
2014-Jul-21 00:20 022 3 gusting 4 16.7
2014-Jul-21 00:15 038 0 gusting 3 16.7
2014-Jul-21 00:10 038 0 gusting 3 16.7
2014-Jul-21 00:05 041 1 gusting 2 16.7
2014-Jul-21 00:00 041 0 gusting 3 16.7
2014-Jul-20 23:55 041 0 gusting 3 16.7
2014-Jul-20 23:50 041 0 gusting 2 16.7
2014-Jul-20 23:45 041 16.7
2014-Jul-20 23:40 041 16.7
2014-Jul-20 23:35 039 1 gusting 4 16.7
2014-Jul-20 23:30 029 1 gusting 4 16.7
2014-Jul-20 23:25 030 0 gusting 5 16.7
2014-Jul-20 23:20 028 2 gusting 6 17.2
2014-Jul-20 23:15 025 4 gusting 6 17.2
2014-Jul-20 23:10 030 4 gusting 6 17.2
2014-Jul-20 23:05 028 3 gusting 5 17.2
2014-Jul-20 23:00 034 3 gusting 6 17.2
2014-Jul-20 22:55 027 3 gusting 5 17.2
2014-Jul-20 22:50 035 1 gusting 5 17.2
2014-Jul-20 22:45 038 3 gusting 6 17.2
2014-Jul-20 22:40 057 4 gusting 6 17.2
2014-Jul-20 22:35 036 1 gusting 5 17.2
2014-Jul-20 22:30 029 3 gusting 5 17.2
2014-Jul-20 22:25 030 3 gusting 6 17.2
2014-Jul-20 22:20 031 2 gusting 6 17.8
2014-Jul-20 22:15 049 2 gusting 6 17.8
2014-Jul-20 22:10 036 2 gusting 6 17.8
2014-Jul-20 22:05 071 3 gusting 5 17.8
2014-Jul-20 22:00 049 3 gusting 5 17.8
2014-Jul-20 21:55 055 2 gusting 6 17.8
2014-Jul-20 21:50 061 3 gusting 6 17.8
2014-Jul-20 21:45 038 3 gusting 7 17.8
2014-Jul-20 21:40 028 5 gusting 7 17.8
2014-Jul-20 21:35 026 4 gusting 7 17.8
2014-Jul-20 21:30 042 4 gusting 7 18.3
2014-Jul-20 21:25 042 4 gusting 8 18.3
2014-Jul-20 21:20 026 4 gusting 9 18.3
2014-Jul-20 21:15 024 6 gusting 9 18.3
2014-Jul-20 21:10 030 4 gusting 7 18.3
2014-Jul-20 21:05 019 5 gusting 11 18.3
2014-Jul-20 21:00 036 6 gusting 11 18.3
2014-Jul-20 20:55 029 6 gusting 9 18.3
2014-Jul-20 20:50 034 6 gusting 9 18.3
2014-Jul-20 20:45 024 5 gusting 10 18.3
2014-Jul-20 20:40 026 6 gusting 10 18.9
2014-Jul-20 20:35 026 6 gusting 12 18.9
2014-Jul-20 20:30 049 7 gusting 12 18.9
2014-Jul-20 20:25 032 7 gusting 13 18.9
2014-Jul-20 20:20 038 7 gusting 13 18.9
2014-Jul-20 20:15 026 7 gusting 12 18.9
2014-Jul-20 20:10 028 9 gusting 13 19.4
2014-Jul-20 20:05 032 9 gusting 13 19.4
2014-Jul-20 20:00 028 8 gusting 12 19.4
2014-Jul-20 19:55 360 6 gusting 12 19.4
2014-Jul-20 19:50 026 7 gusting 12 20.0
2014-Jul-20 19:45 360 7 gusting 13 20.0
2014-Jul-20 19:40 010 7 gusting 11 20.0
2014-Jul-20 19:35 037 6 gusting 12 20.6
2014-Jul-20 19:30 022 7 gusting 12 20.6
2014-Jul-20 19:25 026 7 gusting 12 21.1
2014-Jul-20 19:20 038 8 gusting 12 21.1
2014-Jul-20 19:15 032 6 gusting 11 21.1
2014-Jul-20 19:10 338 6 gusting 10 21.7
2014-Jul-20 19:05 026 5 gusting 10 21.7
2014-Jul-20 19:00 355 5 gusting 12 21.1
2014-Jul-20 18:55 360 7 gusting 12 21.1
2014-Jul-20 18:50 360 6 gusting 13 21.7
2014-Jul-20 18:45 020 7 gusting 13 21.7
2014-Jul-20 18:40 022 6 gusting 10 21.7
2014-Jul-20 18:35 036 6 gusting 12 21.7
2014-Jul-20 18:30 015 7 gusting 12 21.7
2014-Jul-20 18:25 319 6 gusting 12 22.2
2014-Jul-20 18:20 360 6 gusting 11 21.7
2014-Jul-20 18:15 346 5 gusting 11 21.7
2014-Jul-20 18:10 351 7 gusting 12 21.7
2014-Jul-20 18:05 323 8 gusting 13 21.7
2014-Jul-20 18:00 327 8 gusting 13 21.7
2014-Jul-20 17:55 324 7 gusting 12 21.7
2014-Jul-20 17:50 315 8 gusting 12 21.7
2014-Jul-20 17:45 318 7 gusting 13 21.7
2014-Jul-20 17:40 329 7 gusting 13 21.7
2014-Jul-20 17:35 350 8 gusting 13 21.7
2014-Jul-20 17:30 303 8 gusting 13 21.7
2014-Jul-20 17:25 329 9 gusting 12 21.7
2014-Jul-20 17:20 320 7 gusting 12 21.7
2014-Jul-20 17:15 304 9 gusting 13 21.7
2014-Jul-20 17:10 326 8 gusting 13 22.2
2014-Jul-20 17:05 319 8 gusting 13 22.2
2014-Jul-20 17:00 332 9 gusting 13 21.7
2014-Jul-20 16:55 310 9 gusting 13 21.7
2014-Jul-20 16:50 336 8 gusting 12 22.2
2014-Jul-20 16:45 338 7 gusting 11 22.2
2014-Jul-20 16:40 320 8 gusting 12 22.2
2014-Jul-20 16:35 310 9 gusting 13 21.7
2014-Jul-20 16:30 318 9 gusting 13 21.7
2014-Jul-20 16:25 305 6 gusting 11 22.2
2014-Jul-20 16:20 321 6 gusting 12 22.2
2014-Jul-20 16:15 331 8 gusting 12 22.2
2014-Jul-20 16:10 309 6 gusting 11 22.2
2014-Jul-20 16:05 327 7 gusting 12 22.2
2014-Jul-20 16:00 339 7 gusting 13 22.2
2014-Jul-20 15:55 355 6 gusting 11 22.2
2014-Jul-20 15:50 326 6 gusting 13 22.2
2014-Jul-20 15:45 291 6 gusting 12 22.2
2014-Jul-20 15:40 320 7 gusting 12 22.2
2014-Jul-20 15:35 299 8 gusting 12 22.2
2014-Jul-20 15:30 293 7 gusting 13 22.8
2014-Jul-20 15:25 284 6 gusting 13 22.8
2014-Jul-20 15:20 330 8 gusting 12 22.2
2014-Jul-20 15:15 294 7 gusting 12 22.8
2014-Jul-20 15:10 315 6 gusting 12 22.8
2014-Jul-20 15:05 308 9 gusting 12 22.2
2014-Jul-20 15:00 298 6 gusting 11 22.2
2014-Jul-20 11:05 292 6 gusting 10 21.1
2014-Jul-20 11:00 333 5 gusting 9 21.1
2014-Jul-20 10:55 298 5 gusting 9 21.7
2014-Jul-20 10:50 331 5 gusting 9 21.1
2014-Jul-20 10:45 301 6 gusting 10 20.6
2014-Jul-20 10:40 323 6 gusting 10 21.1
2014-Jul-20 10:35 335 5 gusting 9 20.6
2014-Jul-20 10:30 292 6 gusting 10 20.0
2014-Jul-20 10:25 301 6 gusting 10 20.6
2014-Jul-20 10:20 316 6 gusting 10 20.6
2014-Jul-20 10:15 299 4 gusting 11 20.6
2014-Jul-20 10:10 340 6 gusting 11 20.6
2014-Jul-20 10:05 328 6 gusting 11 20.6
2014-Jul-20 10:00 290 7 gusting 11 20.6
2014-Jul-20 09:55 321 7 gusting 10 20.6
2014-Jul-20 09:50 305 6 gusting 10 20.6
2014-Jul-20 09:45 333 6 gusting 9 20.6
2014-Jul-20 09:40 346 6 gusting 9 20.0
2014-Jul-20 09:35 302 6 gusting 11 19.4
2014-Jul-20 09:30 319 7 gusting 11 19.4
2014-Jul-20 09:25 346 4 gusting 9 19.4
2014-Jul-20 09:20 311 6 gusting 8 18.9
2014-Jul-20 09:15 321 6 gusting 8 19.4
2014-Jul-20 09:10 337 6 gusting 8 19.4
2014-Jul-20 09:05 342 6 gusting 9 19.4
2014-Jul-20 09:00 337 6 gusting 9 18.9